Location: Newark
(44.4156°N, 12.1972°E)
Time: 09:20:32
(UTC+00:00)

STARLINK-1099 - Pass Details

Date: 02 February 2020
Orbit: 530 x 532 km, 53.0° (Epoch: 18 February)

Event Time Altitude Azimuth Distance (km) Brightness Sun altitude
Rises 18:14:54 0° 293° (WNW) 2,667 8.2 -20.5°
Reaches altitude 10° 18:17:37 10° 275° (W) 1,772 7.4 -21.0°
Maximum altitude 18:20:26 19° 230° (SW) 1,315 6.1 -21.5°
Drops below altitude 10° 18:23:14 10° 185° (S) 1,762 6.3 -22.0°
Enters shadow 18:24:41 - 173° (S) 2,210 6.7 -22.3°
